Regional Weather Roundup
Issued by NWS Cleveland, OH

Home | Current Version | Previous Version | Graphics & Text | Print | Product List | Glossary On
Versions: 1 2 3 4 5 6 7 8 9 10 11 12 13 14 15 16 17 18 19 20 21 22 23 24 25 26 27 28 29 30 31 32 33 34 35 36 37 38 39 40 41 42 43 44 45 46 47 48 49 50
000
ASUS41 KCLE 051602
RWRCLE
OHIO REGIONAL WEATHER ROUNDUP
NATIONAL WEATHER SERVICE CLEVELAND, OH
1100 AM EST THU MAR 05 2015

NOTE: "FAIR" INDICATES FEW OR NO CLOUDS BELOW 12,000 FEET WITH NO
SIGNIFICANT WEATHER AND/OR OBSTRUCTIONS TO VISIBILITY.

OHZ001>008-015>018-024>027-034-035-043-044-051700-
   NORTHWEST OHIO

CITY           SKY/WX    TMP DP  RH WIND       PRES   REMARKS
DEFIANCE       PTSUNNY   17   3  54 N5        30.40F WCI  10
FINDLAY        CLOUDY    17   5  59 N8        30.36F WCI   7
TOLEDO EXPRESS MOSUNNY   14   4  64 NW6       30.38F WCI   5
TOLEDO EXEC    MOSUNNY   14   2  58 N8        30.39F WCI   3
LIMA           CLOUDY    16   4  59 N7        30.35F WCI   6
$$

OHZ009>014-019>023-028>033-038-089-051700-
   NORTHEAST OHIO

CITY           SKY/WX    TMP DP  RH WIND       PRES   REMARKS
CLE-HOPKINS    CLOUDY    12   1  61 N13       30.38S WCI  -3
CLE-LAKEFRONT  CLOUDY    12   1  61 N8        30.36F WCI   0
CUY CO. ARPT   CLOUDY    14   3  62 N15       30.35S WCI  -1
LORAIN-ELYRIA  CLOUDY    12   3  67 NE9       30.34F WCI   0
ASHTABULA      CLOUDY    10  -3  55 N12       30.35R WCI  -5
AKRON-CANTON   CLOUDY    15   2  56 N12       30.27F WCI   2
WOOSTER        CLOUDY    14   3  61 N9        30.30F WCI   2
MANSFIELD      PTSUNNY   14   3  61 N10       30.28F WCI   1
YOUNGSTOWN     CLOUDY    12   1  61 N12       30.28F WCI  -2
$$

OHZ042-051>053-060>062-070>072-077>081-051700-
  SOUTHWEST OHIO

CITY           SKY/WX    TMP DP  RH WIND       PRES   REMARKS
CINC-COVINGTON CLOUDY    20   8  60 NE10      30.33R WCI   9
CINC-LUNKEN    CLOUDY    20   3  48 N10       30.38R WCI   9
HAMILTON       CLOUDY    20   3  48 N12       30.38R WCI   8
DAYTON         CLOUDY    19   4  51 N10       30.36R WCI   7
WRIGHT-PAT AFB NOT AVBL
DAYTON GENERAL CLOUDY    18   3  52 N9        30.32R WCI   7
WILMINGTON     CLOUDY    17   3  54 N8        30.31R WCI   7
$$

OHZ036-037-039>041-045>050-054>059-063>069-073>076-082>088-051700-
  CENTRAL AND SOUTHEAST OHIO

CITY           SKY/WX    TMP DP  RH WIND       PRES   REMARKS
COLUMBUS       CLOUDY    18   5  57 N9G16     30.33F WCI   7
OSU AIRPORT    CLOUDY    18   5  57 N9        30.33S WCI   7
BOLTON FIELD   CLOUDY    18   7  62 N8        30.33S WCI   7
RICKENBACK AFB NOT AVBL
NEWARK         CLOUDY    19   4  51 NE7       30.31F WCI  10
MARION         CLOUDY    16   5  62 N9        30.34F WCI   4
LANCASTER      CLOUDY    20   7  57 N9        30.31F WCI   9
ZANESVILLE     CLOUDY    18   3  52 N8        30.29F WCI   8
NEW PHILLY     CLOUDY    18   4  54 NE9       30.31F WCI   7
$$



USA.gov is the U.S. government's official web portal to all federal, state and local government web resources and services.